EW3309 Weather Reports


Display with metric or nautical units.
time (UTC)temp
F
wind
direction
speed
MPH
gust
MPH
rain 1hr
in
rain 24hr
in
rain mn
in
humidity
%
barometer
mb
20260507204502 77 277 0.0 0.0 0.00 0.00 0.00 57 1013.6
20260507203135 77 263 0.0 0.0 0.00 0.00 0.00 56 1013.6
20260507201559 78 256 0.0 0.0 0.00 0.00 0.00 56 1013.5
20260507200100 78 251 0.0 0.0 0.00 0.00 0.00 56 1013.6
20260507194613 79 221 0.0 0.0 0.00 0.00 0.00 55 1013.6
20260507193049 78 179 0.0 0.0 0.00 0.00 0.00 56 1013.7
20260507191548 77 302 0.0 0.0 0.00 0.00 0.00 55 1013.9
20260507190051 76 244 0.0 0.0 0.00 0.00 0.00 56 1014.1
20260507184538 75 341 0.0 0.0 0.00 0.00 0.00 59 1014.2
20260507183034 74 270 0.0 0.0 0.00 0.00 0.00 61 1014.4
20260507181529 73 256 0.0 0.0 0.00 0.00 0.00 63 1014.5
20260507180026 71 252 0.0 0.0 0.00 0.00 0.00 67 1014.7
20260507174531 70 323 0.0 0.0 0.00 0.00 0.00 71 1014.8
20260507173043 68 199 0.0 0.0 0.00 0.00 0.00 74 1014.9
20260507171521 66 177 0.0 0.0 0.00 0.00 0.00 80 1015.0
20260507170008 64 198 0.0 0.0 0.00 0.00 0.00 85 1015.2
20260507164504 62 258 0.0 0.0 0.00 0.00 0.00 89 1015.4
20260507163100 61 259 0.0 0.0 0.00 0.00 0.00 92 1015.5
20260507161609 60 301 0.0 0.0 0.00 0.00 0.00 94 1015.6
20260507160100 58 298 0.0 0.0 0.00 0.00 0.00 94 1015.6
20260507154549 58 291 0.0 0.0 0.00 0.00 0.00 94 1015.8
20260507153050 57 289 0.0 0.0 0.00 0.00 0.00 94 1015.6
20260507151543 56 288 0.0 0.0 0.00 0.00 0.00 94 1015.6
20260507150043 56 288 0.0 0.0 0.00 0.00 0.00 94 1015.6
20260507144539 54 293 0.0 0.0 0.00 0.00 0.00 94 1015.7
20260507143048 53 293 0.0 0.0 0.00 0.00 0.00 94 1015.5
20260507141546 53 285 0.0 0.0 0.00 0.00 0.00 94 1015.5
20260507140032 53 290 0.0 0.0 0.00 0.00 0.00 93 1015.3
20260507134528 52 343 0.0 0.0 0.00 0.00 0.00 93 1015.3
20260507133040 52 343 0.0 0.0 0.00 0.00 0.00 93 1015.2
20260507131527 52 343 0.0 0.0 0.00 0.00 0.00 93 1015.2
20260507130022 52 342 0.0 0.0 0.00 0.00 0.00 92 1015.1
20260507124526 52 342 0.0 0.0 0.00 0.00 0.00 92 1014.9
20260507123028 52 342 0.0 0.0 0.00 0.00 0.00 92 1014.9
20260507121519 52 342 0.0 0.0 0.00 0.00 0.00 92 1014.9
20260507120018 53 342 0.0 0.0 0.00 0.00 0.00 92 1014.9
20260507114517 53 342 0.0 0.0 0.00 0.00 0.00 92 1014.8
20260507113016 52 342 0.0 0.0 0.00 0.00 0.00 91 1014.8
20260507111514 53 342 0.0 0.0 0.00 0.00 0.00 91 1014.8
20260507104546 53 342 0.0 0.0 0.00 0.00 0.00 91 1015.0
20260507103048 53 342 0.0 0.0 0.00 0.00 0.00 91 1015.0
20260507101545 53 342 0.0 0.0 0.00 0.00 0.00 90 1015.2
20260507100039 53 337 0.0 0.0 0.00 0.00 0.00 90 1015.2
20260507094552 53 334 0.0 0.0 0.00 0.00 0.00 90 1015.2
20260507093033 54 334 0.0 0.0 0.00 0.00 0.00 90 1015.3
20260507091533 54 334 0.0 0.0 0.00 0.00 0.00 90 1015.5
20260507090028 55 334 0.0 0.0 0.00 0.00 0.00 90 1015.7
20260507084528 55 334 0.0 0.0 0.00 0.00 0.00 90 1015.8
20260507083026 55 334 0.0 0.0 0.00 0.00 0.00 90 1016.0
20260507081526 55 334 0.0 0.0 0.00 0.00 0.00 88 1016.0
20260507080024 55 334 0.0 0.0 0.00 0.00 0.00 88 1016.1
20260507074522 55 334 0.0 0.0 0.00 0.00 0.00 87 1016.2
20260507073019 56 317 0.0 0.0 0.00 0.00 0.00 87 1016.1
20260507071519 56 296 0.0 0.0 0.00 0.00 0.00 86 1016.1
20260507070024 57 295 0.0 0.0 0.00 0.00 0.00 86 1016.3
20260507064515 57 295 0.0 0.0 0.00 0.00 0.00 87 1016.4
20260507063012 57 295 0.0 0.0 0.00 0.00 0.00 86 1016.5
20260507061512 58 295 0.0 0.0 0.00 0.00 0.00 85 1016.5
20260507060015 58 295 0.0 0.0 0.00 0.00 0.00 84 1016.4
20260507054511 59 295 0.0 0.0 0.00 0.00 0.00 82 1016.4
20260507053010 59 295 0.0 0.0 0.00 0.00 0.00 82 1016.4
20260507051513 60 295 0.0 0.0 0.00 0.00 0.00 81 1016.4
20260507050020 60 295 0.0 0.0 0.00 0.00 0.00 81 1016.3
20260507044509 60 295 0.0 0.0 0.00 0.00 0.00 81 1016.3
20260507043007 61 295 0.0 0.0 0.00 0.00 0.00 80 1016.1
20260507041506 61 292 0.0 0.0 0.00 0.00 0.00 79 1016.1
20260507040006 62 5 0.0 0.0 0.00 0.00 0.00 77 1015.9
20260507034505 62 322 0.0 0.0 0.00 0.00 0.00 75 1015.8
20260507033005 63 313 0.0 0.0 0.00 0.00 0.00 74 1015.6
20260507031504 63 311 0.0 0.0 0.00 0.00 0.00 73 1015.5
20260507030005 64 308 0.0 0.0 0.00 0.00 0.00 72 1015.3
20260507024507 64 317 0.0 0.0 0.00 0.00 0.00 70 1015.2
20260507023004 66 305 0.0 0.0 0.00 0.00 0.00 67 1015.2
20260507021503 67 283 0.0 0.0 0.00 0.00 0.00 64 1015.1
20260507020003 68 311 0.0 0.0 0.00 0.00 0.00 62 1015.0
20260507014503 69 329 0.0 0.0 0.00 0.00 0.00 60 1014.9
20260507013104 69 288 0.0 0.0 0.00 0.00 0.00 58 1014.9
20260507011600 70 290 0.0 0.0 0.00 0.00 0.00 58 1014.8
20260507010059 71 290 0.0 0.0 0.00 0.00 0.00 57 1014.8
20260507004558 71 296 0.0 0.0 0.00 0.00 0.00 55 1014.7
20260507003101 72 294 0.0 0.0 0.00 0.00 0.00 56 1014.6
20260507001559 71 283 0.0 0.0 0.00 0.00 0.00 55 1014.6
20260507000054 72 259 0.0 0.0 0.00 0.00 0.00 58 1014.6
20260506234603 72 281 0.0 0.0 0.00 0.00 0.00 57 1014.4
20260506233055 72 302 0.0 0.0 0.00 0.00 0.00 60 1014.4
20260506231554 72 339 0.0 0.0 0.00 0.00 0.00 60 1014.5
20260506230048 72 292 0.0 0.0 0.00 0.00 0.00 59 1014.6
20260506224547 72 302 0.0 0.0 0.00 0.00 0.00 59 1014.5
20260506223044 72 286 0.0 0.0 0.00 0.00 0.00 59 1014.7
20260506221542 72 292 0.0 0.0 0.00 0.00 0.00 59 1014.8
20260506220041 72 327 0.0 0.0 0.00 0.00 0.00 59 1014.9
20260506214544 72 286 0.0 0.0 0.00 0.00 0.00 58 1014.9
20260506213040 73 274 0.0 0.0 0.00 0.00 0.00 57 1015.1
20260506211538 74 304 0.0 0.0 0.00 0.00 0.00 56 1015.2
20260506210037 73 273 0.0 0.0 0.00 0.00 0.00 56 1015.1